Homer, AK

2:09 AM AKDT on June 20, 2019 (GMT -0800)
Homer

Weather History for PAHO - May, 2019

Change the Weather History Date:

Saturday, May 25, 2019

  Actual Average Record
Temperature  
Mean Temperature 50 °F -  
Max Temperature 57 °F 53 °F 71 °F (1997)
Min Temperature 44 °F 38 °F 29 °F (1952)
Degree Days  
Heating Degree Days 14    
Moisture  
Dew Point 41 °F    
Average Humidity 73    
Maximum Humidity 89    
Minimum Humidity 53    
Precipitation  
Precipitation 0.07 in - - ()
Sea Level Pressure  
Sea Level Pressure 30.02 in    
Wind  
Wind Speed 5 mph (East)    
Max Wind Speed 12 mph    
Max Gust Speed 23 mph    
Visibility 10 miles    
Events Rain    
Averages and records for this station are not official NWS values.
T = Trace of Precipitation, MM = Missing Value Source: NWS Daily Summary

Daily Weather History Graph

Daily Weather History Graph

Search for Another Location

Airport or City:

Astronomy

May. 25, 2019 Rise Set
Actual Time 5:09 AM AKDT 10:57 PM AKDT
Civil Twilight 3:58 AM AKDT 12:09 AM AKDT
Nautical Twilight 2:35 AM AKDT Sun does not set
Astronomical Twilight Sun does not set Sun does not set
Moon 3:38 AM AKDT (5/25) 11:47 AM AKDT (5/25)
Length of Visible Light 20h 11m
Length of Day
17h 47m
Waning Gibbous, 58% of the Moon is Illuminated
May 25
Waning Gibbous
May 26
Last Quarter
Jun 3
New
Jun 9
First Quarter
Jun 17
Full

Hourly Weather History & Observations

Time (AKDT) Temp. Windchill Dew Point Humidity Pressure Visibility Wind Dir Wind Speed Gust Speed Precip Events Conditions
12:53 AM 44.1 °F 41.5 °F 39.9 °F 85% 30.17 in 10.0 mi NNE 4.6 mph - N/A   Clear
1:53 AM 46.9 °F - 43.0 °F 86% 30.16 in 10.0 mi Calm Calm - N/A   Clear
2:53 AM 44.1 °F 41.5 °F 41.0 °F 89% 30.15 in 10.0 mi NNE 4.6 mph - N/A   Clear
3:53 AM 46.0 °F 44.8 °F 43.0 °F 89% 30.12 in 10.0 mi ENE 3.5 mph - N/A   Clear
4:07 AM 46.9 °F - 43.0 °F 86% 30.12 in 10.0 mi ENE 5.8 mph - N/A   Scattered Clouds
4:53 AM 46.0 °F 43.1 °F 42.1 °F 86% 30.10 in 10.0 mi NE 5.8 mph - N/A   Clear
5:53 AM 46.9 °F - 43.0 °F 86% 30.07 in 10.0 mi ENE 4.6 mph - N/A   Mostly Cloudy
6:53 AM 48.0 °F - 44.1 °F 86% 30.06 in 10.0 mi ENE 3.5 mph - N/A   Overcast
7:53 AM 51.1 °F - 44.1 °F 77% 30.05 in 10.0 mi South 4.6 mph - N/A   Overcast
8:53 AM 52.0 °F - 43.0 °F 71% 30.04 in 10.0 mi Calm Calm - N/A   Overcast
9:35 AM 51.1 °F - 39.9 °F 66% 30.05 in 10.0 mi SE 11.5 mph 23.0 mph 0.01 in Rain Light Rain
9:53 AM 50.0 °F - 39.9 °F 68% 30.05 in 10.0 mi SE 9.2 mph 13.8 mph 0.01 in Rain Light Rain
10:53 AM 50.0 °F - 43.0 °F 77% 30.03 in 10.0 mi SSW 3.5 mph - 0.01 in Rain Light Rain
11:53 AM 51.1 °F - 41.0 °F 68% 30.02 in 10.0 mi Variable 3.5 mph - 0.00 in   Overcast
12:53 PM 51.1 °F - 39.0 °F 63% 30.01 in 10.0 mi SE 8.1 mph - N/A   Overcast
1:53 PM 52.0 °F - 39.0 °F 61% 30.00 in 10.0 mi Variable 5.8 mph - N/A   Overcast
2:53 PM 53.1 °F - 39.0 °F 59% 29.99 in 10.0 mi WSW 3.5 mph - N/A   Overcast
3:53 PM 55.9 °F - 39.0 °F 53% 29.97 in 10.0 mi North - - N/A   Overcast
4:53 PM 57.0 °F - 39.9 °F 53% 29.96 in 10.0 mi SE 9.2 mph - N/A   Overcast
5:53 PM 54.0 °F - 37.9 °F 55% 29.94 in 10.0 mi ESE 6.9 mph - N/A   Mostly Cloudy
6:53 PM 54.0 °F - 39.0 °F 57% 29.91 in 10.0 mi Variable 6.9 mph - N/A   Overcast
7:53 PM 53.1 °F - 39.0 °F 59% 29.90 in 10.0 mi ESE 6.9 mph - N/A   Overcast
8:53 PM 52.0 °F - 39.9 °F 63% 29.89 in 10.0 mi ESE 10.4 mph 19.6 mph 0.00 in Rain Light Rain
9:53 PM 48.9 °F - 43.0 °F 80% 29.90 in 10.0 mi East 6.9 mph - 0.03 in Rain Light Rain
10:53 PM 48.0 °F - 44.1 °F 86% 29.88 in 10.0 mi North 3.5 mph - 0.01 in Rain Light Rain
11:53 PM 48.0 °F - 44.1 °F 86% 29.88 in 10.0 mi Calm Calm - 0.01 in   Overcast